1505199600.8,13076,16.25,73084.8,5.35,5.11,5.19,0,*75
1505199602.01,13077,16.25,73086.8,5.35,5.11,5.11,0,*7C
1505199603.23,13078,16.25,73084.8,5.37,5.27,5.27,0,*71
1505199604.44,13079,16.25,73080.0,5.35,5.23,5.19,0,*7B
1505199605.66,13080,16.25,73084.8,5.35,5.19,5.19,0,*74
1505199606.87,13081,16.25,73086.8,5.35,5.11,5.23,0,*74
1505199608.08,13082,16.25,73082.5,5.35,5.11,5.23,0,*77
1505199609.27,13083,16.25,73086.0,5.33,5.19,5.19,0,*71
1505199610.47,13084,16.25,73086.0,5.37,5.23,5.27,0,*76
1505199611.69,13085,16.25,73080.8,5.37,5.27,5.27,0,*73
1505199612.89,13086,16.25,73082.8,5.37,5.23,5.27,0,*74
1505199614.1,13087,16.25,73086.0,5.37,5.23,5.27,0,*75
1505199615.3,13088,16.25,73084.5,5.37,5.27,5.23,0,*7A
1505199616.5,13089,16.25,73086.5,5.37,5.23,5.27,0,*7B
1505199617.72,13090,16.25,73084.5,5.37,5.27,5.27,0,*77
1505199618.94,13091,16.25,73086.0,5.37,5.27,5.27,0,*76
1505199620.14,13092,16.25,73088.3,5.37,5.27,5.33,0,*70
1505199621.33,13093,16.25,73084.5,5.37,5.27,5.33,0,*71
1505199622.53,13094,16.25,73086.5,5.37,5.27,5.33,0,*76
1505199623.71,13095,16.25,73080.3,5.37,5.33,5.33,0,*72
1505199624.89,13096,16.25,73082.8,5.37,5.33,5.37,0,*75
1505199626.06,13097,16.25,73082.0,5.41,5.37,5.41,0,*70
1505199627.23,13098,16.25,73080.8,5.41,5.37,5.37,0,*7E
1505199628.39,13099,16.25,73082.0,5.41,5.45,5.41,0,*7B
1505199629.56,13100,16.25,73086.3,5.41,5.37,5.41,0,*7F
1505199630.74,13101,16.25,73084.5,5.37,5.33,5.41,0,*7B
1505199631.91,13102,16.25,73082.5,5.41,5.41,5.37,0,*7D
1505199633.08,13103,16.25,73080.8,5.41,5.37,5.41,0,*7C
1505199634.25,13104,16.25,73086.0,5.41,5.41,5.37,0,*7B
1505199635.42,13105,16.25,73086.5,5.41,5.37,5.37,0,*7B
1505199636.59,13106,16.25,73084.0,5.41,5.37,5.37,0,*78
1505199637.76,13107,16.25,73082.0,5.41,5.37,5.37,0,*79
1505199638.93,13108,16.25,73080.5,5.41,5.29,5.37,0,*79
1505199640.1,13109,16.25,73088.0,5.41,5.29,5.29,0,*77
1505199641.26,13110,16.25,73084.3,5.41,5.29,5.29,0,*7F
1505199642.46,13111,16.25,73082.0,5.43,5.29,5.29,0,*7C
1505199643.67,13112,16.25,73084.0,5.41,5.27,5.27,0,*7D
1505199644.88,13113,16.25,73086.0,5.41,5.19,5.27,0,*71
1505199646.08,13114,16.25,73084.3,5.43,5.23,5.29,0,*73
1505199647.25,13115,16.25,73084.8,5.41,5.15,5.19,0,*76
1505199648.47,13116,16.25,73084.0,5.43,5.19,5.23,0,*72
1505199649.65,13117,16.25,73086.0,5.41,5.15,5.19,0,*74
1505199650.83,13118,16.25,73084.3,5.41,5.15,5.19,0,*7B
1505199652.01,13119,16.25,73082.5,5.41,5.19,5.19,0,*76
1505199653.19,13120,16.25,73086.0,5.41,5.15,5.19,0,*70
1505199654.37,13121,16.25,73082.3,5.41,5.19,5.19,0,*7D
1505199655.55,13122,16.25,73080.0,5.41,5.15,5.15,0,*7E
1505199656.75,13123,16.25,73082.5,5.41,5.05,5.15,0,*7E
1505199657.96,13124,16.25,73082.8,5.43,5.19,5.19,0,*7A
1505199659.17,13125,16.25,73080.3,5.43,5.23,5.23,0,*7B
1505199660.39,13126,16.25,73080.0,5.43,5.19,5.19,0,*78
1505199661.6,13127,16.25,73084.0,5.43,5.19,5.19,0,*79
1505199662.81,13128,16.25,73086.8,5.43,5.19,5.19,0,*76
1505199663.99,13129,16.25,73084.3,5.41,5.19,5.15,0,*79
1505199665.18,13130,16.25,73086.5,5.41,5.19,5.19,0,*7D
1505199666.38,13131,16.25,73086.8,5.43,5.23,5.29,0,*74
1505199667.59,13132,16.25,73080.8,5.43,5.23,5.23,0,*7D
1505199668.8,13133,16.25,73080.0,5.43,5.19,5.19,0,*7C
1505199670.0,13134,16.25,73080.8,5.41,5.27,5.19,0,*74
1505199671.21,13135,16.25,73078.8,5.43,5.23,5.23,0,*7A
1505199672.41,13136,16.25,73082.5,5.43,5.33,5.29,0,*72
1505199673.6,13137,16.25,73086.5,5.41,5.27,5.29,0,*74
1505199674.8,13138,16.25,73086.5,5.43,5.33,5.33,0,*77
1505199675.97,13139,16.25,73086.0,5.41,5.29,5.29,0,*74
1505199677.17,13140,16.25,73086.5,5.43,5.33,5.33,0,*78
1505199678.35,13141,16.25,73082.5,5.41,5.33,5.33,0,*7B
1505199679.52,13142,16.25,73088.3,5.41,5.41,5.45,0,*7C
1505199680.71,13143,16.25,73090.8,5.43,5.45,5.41,0,*7F
1505199681.9,13144,16.25,73080.5,5.43,5.45,5.49,0,*70
1505199683.07,13145,16.25,73084.0,5.41,5.49,5.49,0,*7F
1505199684.24,13146,16.25,73086.3,5.45,5.45,5.49,0,*74
1505199685.43,13147,16.25,73084.8,5.45,5.45,5.51,0,*7C
1505199686.6,13148,16.25,73084.8,5.45,5.49,5.45,0,*7A
1505199687.76,13149,16.25,73082.0,5.49,5.45,5.45,0,*7B
1505199688.93,13150,16.25,73080.3,5.45,5.37,5.45,0,*7A
1505199690.1,13151,16.25,73088.5,5.45,5.37,5.45,0,*7B
1505199691.27,13152,16.25,73090.8,5.49,5.37,5.45,0,*74
1505199692.44,13153,16.25,73084.5,5.49,5.33,5.37,0,*74
1505199693.61,13154,16.25,73090.3,5.45,5.33,5.33,0,*7B
1505199694.81,13155,16.25,73088.3,5.45,5.15,5.27,0,*7B
1505199695.99,13156,16.25,73088.3,5.45,5.15,5.23,0,*7C
1505199697.17,13157,16.25,73088.3,5.49,5.23,5.23,0,*74
1505199698.35,13158,16.25,73086.5,5.45,5.23,5.15,0,*72
1505199699.53,13159,16.25,73086.3,5.45,5.11,5.15,0,*72
1505199700.73,13160,16.25,73086.0,5.45,5.05,5.11,0,*79
1505199701.94,13161,16.25,73084.5,5.45,5.05,5.11,0,*78
1505199703.12,13162,16.25,73084.0,5.45,5.11,5.11,0,*7E
1505199704.32,13163,16.25,73086.3,5.51,5.15,5.15,0,*7A
1505199705.5,13164,16.25,73084.0,5.45,5.15,5.11,0,*7C
1505199706.67,13165,16.25,73084.0,5.49,5.15,5.15,0,*75
1505199707.84,13166,16.25,73080.0,5.45,5.15,5.15,0,*7A
1505199709.02,13167,16.25,73082.5,5.45,5.15,5.23,0,*7E
1505199710.21,13168,16.25,73084.0,5.45,5.23,5.23,0,*74
1505199711.41,13169,16.25,73086.3,5.45,5.11,5.27,0,*70
1505199712.6,13170,16.25,73090.3,5.45,5.15,5.27,0,*7C
1505199713.78,13171,16.25,73082.8,5.45,5.15,5.23,0,*79
1505199714.96,13172,16.25,73078.8,5.45,5.11,5.15,0,*7B
1505199716.14,13173,16.25,73080.8,5.45,5.11,5.11,0,*7E
1505199717.32,13174,16.25,73082.0,5.45,5.11,5.15,0,*7D
1505199718.52,13175,16.25,73080.0,5.45,5.05,5.15,0,*79
1505199719.7,13176,16.25,73078.0,5.45,5.11,5.15,0,*7F
1505199720.88,13177,16.25,73078.0,5.45,5.11,5.15,0,*7E
1505199722.08,13178,16.25,73078.5,5.43,5.11,5.11,0,*73
1505199723.29,13179,16.25,73080.0,5.43,5.11,5.11,0,*72
1505199724.5,13180,16.25,73080.5,5.43,5.11,5.19,0,*7C
1505199725.71,13181,16.25,73080.3,5.43,5.19,5.19,0,*75
1505199726.91,13182,16.25,73084.0,5.49,5.23,5.27,0,*78
1505199728.12,13183,16.25,73084.0,5.49,5.27,5.27,0,*7D
1505199729.3,13184,16.25,73086.0,5.49,5.23,5.23,0,*7A
1505199730.48,13185,16.25,73084.3,5.49,5.23,5.23,0,*7B
1505199731.66,13186,16.25,73084.0,5.45,5.15,5.23,0,*71
1505199732.86,13187,16.25,73080.3,5.45,5.15,5.27,0,*74
1505199734.08,13188,16.25,73084.3,5.45,5.27,5.27,0,*7A
1505199735.26,13189,16.25,73086.5,5.45,5.23,5.23,0,*7B
1505199736.46,13190,16.25,73082.5,5.45,5.23,5.27,0,*77
1505199737.64,13191,16.25,73080.5,5.45,5.11,5.15,0,*76
1505199738.81,13192,16.25,73082.0,5.45,5.11,5.15,0,*75
1505199739.99,13193,16.25,73084.8,5.45,5.15,5.15,0,*70
1505199741.17,13194,16.25,73082.3,5.45,5.23,5.23,0,*77
1505199742.36,13195,16.25,73076.5,5.49,5.23,5.23,0,*7A
1505199743.53,13196,16.25,73080.5,5.49,5.23,5.23,0,*79
1505199744.71,13197,16.25,73082.0,5.45,5.15,5.23,0,*71
1505199745.92,13198,16.25,73080.0,5.43,5.11,5.19,0,*75
1505199747.13,13199,16.25,73080.8,5.43,5.11,5.19,0,*74
1505199748.34,13200,16.25,73082.3,5.43,5.11,5.11,0,*7F
1505199749.51,13201,16.25,73078.3,5.45,5.15,5.15,0,*78
1505199750.7,13202,16.25,73076.3,5.45,5.23,5.23,0,*7B
1505199751.91,13203,16.25,73080.3,5.45,5.27,5.27,0,*7A
1505199753.13,13204,16.25,73082.5,5.45,5.27,5.27,0,*7D
1505199754.31,13205,16.25,73080.5,5.45,5.23,5.23,0,*7C
1505199755.5,13206,16.25,73082.3,5.45,5.23,5.23,0,*7F
1505199756.68,13207,16.25,73078.0,5.45,5.23,5.23,0,*7E
1505199757.87,13208,16.25,73080.0,5.49,5.15,5.27,0,*7C
1505199759.05,13209,16.25,73078.8,5.45,5.15,5.23,0,*75
1505199760.23,13210,16.25,73084.5,5.49,5.23,5.23,0,*74
1505199761.43,13211,16.25,73082.0,5.45,5.23,5.27,0,*7D
1505199762.63,13212,16.25,73086.0,5.45,5.23,5.27,0,*7E
1505199763.82,13213,16.25,73082.3,5.45,5.23,5.23,0,*7B
1505199764.99,13214,16.25,73080.3,5.45,5.15,5.15,0,*7C
1505199766.17,13215,16.25,73082.5,5.45,5.15,5.15,0,*7D
1505199767.34,13216,16.25,73080.3,5.49,5.11,5.11,0,*72
1505199768.55,13217,16.25,73084.5,5.49,5.01,5.11,0,*72
1505199769.81,13218,16.25,73084.5,5.43,4.97,4.97,0,*76
1505199771.01,13219,16.25,73088.3,5.45,5.05,5.11,0,*74
1505199772.27,13220,16.25,73086.3,5.43,5.01,4.97,0,*73
1505199773.51,13221,16.25,73086.3,5.43,4.97,5.07,0,*74
1505199774.77,13222,16.25,73080.3,5.43,5.01,4.97,0,*71
1505199776.0,13223,16.25,73082.3,5.43,5.01,5.07,0,*78
1505199777.26,13224,16.25,73084.3,5.43,4.97,5.01,0,*77
1505199778.53,13225,16.25,73084.0,5.43,4.97,5.01,0,*76
1505199779.75,13226,16.25,73084.8,5.41,4.97,5.05,0,*73
1505199780.96,13227,16.25,73082.0,5.43,5.11,5.11,0,*7A
1505199782.17,13228,16.25,73082.0,5.43,5.11,5.07,0,*72
1505199783.38,13229,16.25,73086.0,5.43,5.11,5.11,0,*74
1505199784.59,13230,16.25,73084.3,5.43,5.11,5.19,0,*74
1505199785.8,13231,16.25,73082.3,5.43,5.19,5.19,0,*7D
1505199787.01,13232,16.25,73084.3,5.43,5.19,5.23,0,*77
1505199788.19,13233,16.25,73084.3,5.49,5.23,5.23,0,*75
1505199789.37,13234,16.25,73080.3,5.45,5.23,5.15,0,*7B
1505199790.58,13235,16.25,73082.3,5.43,5.23,5.19,0,*70
1505199791.76,13236,16.25,73084.0,5.45,5.23,5.23,0,*7C
1505199792.97,13237,16.25,73084.8,5.43,5.11,5.07,0,*7C
1505199794.18,13238,16.25,73080.8,5.45,5.01,5.11,0,*73
1505199795.44,13239,16.25,73084.0,5.43,4.97,4.97,0,*75
1505199796.7,13240,16.25,73084.0,5.43,4.97,5.01,0,*75
1505199797.96,13241,16.25,73080.8,5.43,5.01,5.01,0,*7A
1505199799.19,13242,16.25,73080.3,5.41,4.97,5.05,0,*71
1505199800.43,13243,16.25,73086.0,5.43,5.01,5.07,0,*7E
1505199801.6,13244,16.25,73086.0,5.41,5.07,5.07,0,*7D
1505199802.81,13245,16.25,73082.3,5.43,5.11,5.19,0,*76
1505199804.02,13246,16.25,73084.0,5.43,5.19,5.19,0,*7D
1505199805.21,13247,16.25,73080.3,5.41,5.19,5.15,0,*72
1505199806.41,13248,16.25,73086.0,5.43,5.11,5.11,0,*73
1505199807.62,13249,16.25,73086.5,5.43,5.07,5.11,0,*75
1505199808.82,13250,16.25,73084.8,5.43,5.07,5.07,0,*7A
1505199810.05,13251,16.25,73090.5,5.41,5.01,5.05,0,*7D
1505199811.31,13252,16.25,73084.5,5.43,5.01,4.97,0,*76
1505199812.54,13253,16.25,73084.8,5.43,4.97,4.89,0,*76
1505199813.8,13254,16.25,73082.0,5.43,4.97,4.97,0,*7E
1505199815.03,13255,16.25,73082.0,5.43,4.89,5.01,0,*7E
1505199816.29,13256,16.25,73090.0,5.43,5.01,5.01,0,*7C
1505199817.56,13257,16.25,73086.0,5.43,5.01,5.01,0,*7D
1505199818.74,13258,16.25,73084.3,5.41,5.07,5.07,0,*70
1505199819.94,13259,16.25,73080.5,5.43,5.11,5.07,0,*74
1505199821.15,13260,16.25,73082.5,5.43,5.11,5.11,0,*79
1505199822.36,13261,16.25,73086.3,5.43,5.07,5.19,0,*77
1505199823.57,13262,16.25,73086.8,5.43,5.11,5.11,0,*7B
1505199824.77,13263,16.25,73086.3,5.43,5.07,5.07,0,*7A
1505199825.98,13264,16.25,73090.3,5.43,5.07,5.11,0,*7A
1505199827.18,13265,16.25,73086.0,5.43,5.11,5.11,0,*7C
1505199828.39,13266,16.25,73084.0,5.43,5.11,5.19,0,*77
1505199829.6,13267,16.25,73084.3,5.43,5.11,5.19,0,*76
1505199830.78,13268,16.25,73092.8,5.41,5.07,5.07,0,*73
1505199831.99,13269,16.25,73090.0,5.41,5.05,5.15,0,*73
1505199833.19,13270,16.25,73084.3,5.43,5.11,5.07,0,*7F
1505199834.42,13271,16.25,73086.8,5.41,5.05,5.05,0,*7B
1505199835.65,13272,16.25,73080.5,5.41,4.93,4.97,0,*7C
1505199836.86,13273,16.25,73080.0,5.41,4.89,4.97,0,*76
1505199838.09,13274,16.25,73084.3,5.43,4.89,5.01,0,*7D
1505199839.35,13275,16.25,73084.5,5.43,4.97,4.97,0,*7D
1505199840.58,13276,16.25,73088.0,5.41,4.97,4.93,0,*78
1505199841.76,13277,16.25,73086.8,5.41,4.81,4.85,0,*79
1505199842.93,13278,16.25,73086.3,5.41,4.81,4.81,0,*72
1505199844.13,13279,16.25,73084.5,5.43,4.89,4.89,0,*71
1505199845.36,13280,16.25,73086.3,5.43,4.89,4.97,0,*78
1505199846.62,13281,16.25,73088.8,5.43,4.97,4.97,0,*76
1505199847.88,13282,16.25,73086.8,5.43,4.97,5.01,0,*7B
1505199849.11,13283,16.25,73086.8,5.41,4.97,4.93,0,*72
1505199850.37,13284,16.25,73090.3,5.43,5.01,4.97,0,*7D
1505199851.55,13285,16.25,73092.0,5.41,5.07,5.15,0,*73
1505199852.72,13286,16.25,73088.8,5.41,5.07,5.19,0,*7C
1505199853.92,13287,16.25,73086.0,5.41,5.15,5.27,0,*73
1505199855.12,13288,16.25,73090.5,5.43,5.23,5.29,0,*75
1505199856.3,13289,16.25,73088.5,5.41,5.15,5.15,0,*7C
1505199857.48,13290,16.25,73088.0,5.41,5.19,5.15,0,*78
1505199858.65,13291,16.25,73088.8,5.41,5.15,5.15,0,*75
1505199859.83,13292,16.25,73084.5,5.41,5.19,5.15,0,*7A
1505199861.02,13293,16.25,73086.0,5.41,5.19,5.19,0,*77
1505199862.23,13294,16.25,73090.5,5.43,5.23,5.23,0,*72
1505199863.44,13295,16.25,73086.5,5.43,5.23,5.19,0,*7A
1505199864.65,13296,16.25,73086.8,5.43,5.23,5.19,0,*79
1505199865.86,13297,16.25,73086.5,5.43,5.19,5.19,0,*71
1505199867.06,13298,16.25,73084.3,5.43,5.11,5.11,0,*7E
1505199868.25,13299,16.25,73090.0,5.41,5.11,5.11,0,*7D
1505199869.45,13300,16.25,73082.5,5.41,5.05,5.07,0,*7E
1505199870.66,13301,16.25,73080.0,5.43,5.11,5.11,0,*7F
1505199871.87,13302,16.25,73082.8,5.43,5.11,5.07,0,*7B
1505199873.07,13303,16.25,73082.5,5.43,4.89,4.85,0,*71
1505199874.34,13304,16.25,73080.3,5.43,5.01,5.01,0,*7A
1505199875.57,13305,16.25,73084.3,5.41,5.05,5.05,0,*79
1505199876.83,13306,16.25,73090.0,5.43,5.01,5.01,0,*78
1505199878.06,13307,16.25,73084.3,5.43,5.01,5.11,0,*78
1505199879.27,13308,16.25,73084.3,5.41,5.05,5.07,0,*76
1505199880.48,13309,16.25,73082.0,5.43,5.07,5.07,0,*77
1505199881.66,13310,16.25,73080.3,5.41,5.07,5.07,0,*7D
1505199882.86,13311,16.25,73084.3,5.41,4.85,4.97,0,*7F
1505199884.06,13312,16.25,73080.3,5.43,4.85,4.89,0,*71
1505199885.26,13313,16.25,73084.0,5.43,4.89,4.85,0,*70
1505199886.46,13314,16.25,73080.3,5.43,4.89,4.89,0,*7B
1505199887.72,13315,16.25,73086.3,5.43,4.97,5.01,0,*74
1505199888.96,13316,16.25,73086.0,5.43,5.07,5.01,0,*7F
1505199890.22,13317,16.25,73086.8,5.43,4.97,5.01,0,*76
1505199891.4,13318,16.25,73086.0,5.41,5.07,5.07,0,*75
1505199892.6,13319,16.25,73086.0,5.43,5.07,5.11,0,*71
1505199893.78,13320,16.25,73088.5,5.41,5.07,5.15,0,*7D
1505199894.99,13321,16.25,73084.3,5.43,5.19,5.19,0,*7D
1505199896.2,13322,16.25,73084.5,5.43,5.11,5.23,0,*7F
1505199897.41,13323,16.25,73086.0,5.43,5.11,5.19,0,*77
1505199898.62,13324,16.25,73086.3,5.43,5.19,5.19,0,*78
1505199899.83,13325,16.25,73082.5,5.43,5.19,5.19,0,*79
1505199901.01,13326,16.25,73078.8,5.41,5.15,5.15,0,*78
1505199902.22,13327,16.25,73082.5,5.43,5.19,5.19,0,*7B
1505199903.4,13328,16.25,73084.0,5.41,5.19,5.19,0,*76
1505199904.58,13329,16.25,73086.0,5.41,5.07,5.07,0,*77
1505199905.79,13330,16.25,73080.8,5.43,5.11,5.19,0,*75
1505199907.0,13331,16.25,73080.5,5.43,5.11,5.19,0,*74
1505199908.21,13332,16.31,73084.5,5.43,5.11,5.23,0,*7E
1505199909.47,13333,16.25,73084.0,5.43,4.97,5.01,0,*70
1505199910.68,13334,16.25,73080.8,5.43,5.07,5.07,0,*79
1505199911.91,13335,16.25,73082.5,5.43,5.07,5.01,0,*7E
1505199913.14,13336,16.25,73086.8,5.43,5.01,5.11,0,*7A
1505199914.41,13337,16.25,73088.3,5.43,5.01,5.01,0,*7A
1505199915.64,13338,16.25,73080.5,5.41,4.97,4.97,0,*77
1505199916.9,13339,16.25,73086.8,5.43,5.01,4.97,0,*7A
1505199918.13,13340,16.25,73084.3,5.41,4.93,4.93,0,*78
1505199919.39,13341,16.25,73084.5,5.43,4.97,4.97,0,*7B
1505199920.62,13342,16.25,73080.5,5.41,4.93,4.93,0,*7A
1505199921.85,13343,16.25,73080.0,5.41,4.97,4.97,0,*7B
1505199923.08,13344,16.25,73082.8,5.41,4.93,4.97,0,*78
1505199924.34,13345,16.25,73080.5,5.43,4.97,5.01,0,*71
1505199925.6,13346,16.25,73084.8,5.43,5.01,5.01,0,*7C
1505199926.83,13347,16.25,73082.3,5.41,4.93,4.97,0,*7B
1505199928.07,13348,16.25,73084.5,5.41,5.05,4.97,0,*7A
1505199929.27,13349,16.25,73084.3,5.41,5.07,5.05,0,*73
1505199930.49,13350,16.25,73086.0,5.41,5.05,5.05,0,*79
1505199931.72,13351,16.25,73080.3,5.41,5.05,5.05,0,*78
1505199932.9,13352,16.25,73086.5,5.41,5.07,5.07,0,*7B
1505199934.08,13353,16.25,73084.5,5.41,5.07,5.07,0,*7A
1505199935.27,13354,16.25,73086.5,5.41,5.19,5.11,0,*75
1505199936.45,13355,16.25,73084.5,5.41,5.11,5.19,0,*74
1505199937.62,13356,16.25,73086.5,5.41,5.07,5.15,0,*7C
1505199938.8,13357,16.25,73084.3,5.41,5.15,5.19,0,*72
1505199940.01,13358,16.25,73082.3,5.43,5.19,5.23,0,*7A
1505199941.2,13359,16.25,73084.3,5.41,5.19,5.11,0,*78
1505199942.39,13360,16.25,73084.0,5.41,5.19,5.23,0,*73
1505199943.56,13361,16.25,73084.5,5.41,5.15,5.15,0,*7B
1505199944.77,13362,16.25,73088.0,5.43,5.19,5.19,0,*7A
1505199945.95,13363,16.25,73086.8,5.41,5.07,5.19,0,*76
1505199947.18,13364,16.25,73088.3,5.41,5.05,5.05,0,*7E
1505199948.39,13365,16.25,73090.3,5.43,5.11,5.11,0,*7D
1505199949.56,13366,16.25,73090.5,5.41,5.07,5.15,0,*7F
1505199950.77,13367,16.25,73090.8,5.43,5.11,5.11,0,*7F
1505199951.98,13368,16.25,73086.5,5.43,5.11,5.11,0,*70
1505199953.19,13369,16.25,73086.8,5.43,5.07,5.07,0,*71
1505199954.39,13370,16.25,73080.8,5.41,5.05,5.07,0,*79
1505199955.63,13371,16.25,73082.3,5.41,4.93,4.97,0,*7E
1505199956.86,13372,16.25,73080.5,5.45,5.01,5.01,0,*7D
1505199958.12,13373,16.25,73080.8,5.43,4.97,4.97,0,*7A
1505199959.33,13374,16.25,73086.5,5.41,4.93,5.07,0,*73
1505199960.56,13375,16.25,73090.0,5.41,4.97,5.05,0,*74
1505199961.76,13376,16.25,73086.5,5.41,4.85,4.93,0,*7A
1505199962.99,13377,16.25,73086.8,5.41,4.93,4.97,0,*78
1505199964.25,13378,16.25,73086.8,5.43,4.97,5.01,0,*7F
1505199965.48,13379,16.25,73088.8,5.41,4.97,4.97,0,*72
1505199966.75,13380,16.25,73088.0,5.43,4.97,5.01,0,*78
1505199967.98,13381,16.25,73090.5,5.41,4.97,4.97,0,*75
1505199969.21,13382,16.25,73088.3,5.41,4.93,5.05,0,*78
1505199970.43,13383,16.25,73090.3,5.41,4.97,5.05,0,*7D
1505199971.67,13384,16.25,73084.8,5.41,4.97,4.97,0,*70
1505199972.9,13385,16.25,73088.0,5.41,4.97,4.97,0,*71
1505199974.13,13386,16.25,73088.5,5.41,4.93,5.05,0,*7C
1505199975.35,13387,16.25,73088.8,5.41,4.97,5.05,0,*79
1505199976.55,13388,16.25,73088.8,5.41,5.07,5.05,0,*7E
1505199977.78,13389,16.25,73090.3,5.41,5.05,5.05,0,*7D
1505199978.99,13390,16.25,73086.0,5.41,5.05,5.07,0,*77
1505199980.17,13391,16.25,73084.8,5.41,5.11,5.11,0,*74
1505199981.37,13392,16.25,73084.0,5.41,5.07,5.05,0,*75
1505199982.55,13393,16.25,73080.3,5.41,4.81,4.85,0,*72
1505199983.72,13394,16.25,73084.5,5.41,4.85,4.85,0,*71
1505199984.89,13395,16.25,73088.5,5.41,4.81,4.85,0,*74
1505199986.06,13396,16.25,73088.5,5.41,4.81,4.81,0,*73
1505199987.24,13397,16.25,73088.5,5.41,4.81,4.85,0,*76
1505199988.47,13398,16.25,73086.3,5.41,4.97,4.93,0,*79
1505199989.7,13399,16.25,73082.3,5.41,4.93,4.93,0,*7C
1505199990.93,13400,16.25,73082.3,5.41,4.93,4.97,0,*7F
1505199992.17,13401,16.25,73084.8,5.41,4.93,4.93,0,*7A
1505199993.39,13402,16.25,73088.8,5.41,5.05,5.05,0,*79
1505199994.6,13403,16.25,73086.8,5.41,5.05,5.07,0,*7A
1505199995.83,13404,16.25,73090.3,5.41,4.97,4.97,0,*7F
1505199997.06,13405,16.25,73088.8,5.41,5.05,5.05,0,*7E
1505199998.3,13406,16.25,73094.0,5.37,4.93,4.93,0,*7C
1505199999.53,13407,16.25,73084.3,5.41,4.93,4.97,0,*78
1505200000.73,13408,16.25,73088.5,5.41,4.85,4.97,0,*70
1505200001.94,13409,16.25,73094.3,5.41,4.85,4.97,0,*71
1505200003.11,13410,16.25,73088.8,5.41,4.85,4.85,0,*7A
1505200004.28,13411,16.25,73084.5,5.41,4.81,4.81,0,*7B
1505200005.46,13412,16.25,73088.8,5.41,4.85,4.85,0,*78
1505200006.66,13413,16.25,73088.5,5.41,4.85,4.93,0,*7E
1505200007.89,13414,16.25,73090.5,5.41,4.93,4.93,0,*7E
1505200009.1,13415,16.25,73084.3,5.41,5.05,5.07,0,*7D
1505200010.33,13416,16.25,73088.3,5.41,5.05,5.05,0,*7C
1505200011.54,13417,16.25,73084.8,5.41,5.05,5.07,0,*7F
1505200012.77,13418,16.25,73088.8,5.41,4.93,4.97,0,*76
1505200014.0,13419,16.25,73090.3,5.43,4.89,4.97,0,*7E
1505200015.23,13420,16.25,73088.8,5.41,4.97,4.93,0,*7D
1505200016.46,13421,16.25,73088.3,5.41,4.97,4.93,0,*7C
1505200017.69,13422,16.25,73086.8,5.41,4.97,4.97,0,*7B
1505200018.93,13423,16.25,73088.0,5.41,4.97,4.97,0,*7A
1505200020.15,13424,16.25,73090.0,5.41,4.97,5.05,0,*77
1505200021.38,13425,16.25,73084.5,5.41,5.05,5.05,0,*7C
1505200022.56,13426,16.25,73086.5,5.41,5.07,5.15,0,*7C
1505200023.74,13427,16.25,73084.0,5.41,5.07,5.19,0,*71
1505200024.91,13428,16.25,73086.5,5.41,5.07,5.15,0,*72
1505200026.12,13429,16.25,73088.5,5.37,5.05,5.11,0,*74
1505200027.3,13430,16.25,73090.0,5.41,5.07,5.15,0,*7B
1505200028.51,13431,16.25,73090.8,5.43,5.19,5.19,0,*7B
1505200029.69,13432,16.25,73090.5,5.41,5.15,5.15,0,*7A
1505200030.86,13433,16.25,73090.0,5.41,5.15,5.19,0,*77
1505200032.04,13434,16.25,73088.8,5.41,5.15,5.15,0,*7C
1505200033.21,13435,16.25,73090.8,5.41,5.07,5.15,0,*7E
1505200034.39,13436,16.25,73088.5,5.41,5.15,5.15,0,*7E
1505200035.56,13437,16.25,73092.8,5.41,5.15,5.15,0,*7F
1505200036.75,13438,16.25,73092.3,5.41,5.19,5.19,0,*70
1505200037.93,13439,16.25,73094.3,5.41,5.19,5.19,0,*71
1505200039.11,13440,16.25,73094.5,5.41,5.15,5.19,0,*73
1505200040.29,13441,16.25,73094.5,5.41,5.15,5.19,0,*72
1505200041.49,13442,16.25,73092.3,5.45,5.27,5.23,0,*7D
1505200042.69,13443,16.25,73088.8,5.43,5.23,5.29,0,*74
1505200043.89,13444,16.25,73090.5,5.41,5.19,5.27,0,*76
1505200045.08,13445,16.25,73088.5,5.43,5.29,5.29,0,*78
1505200046.29,13446,16.25,73094.3,5.41,5.19,5.27,0,*74
1505200047.49,13447,16.25,73092.0,5.43,5.23,5.33,0,*7B
1505200048.72,13448,16.25,73090.3,5.43,5.23,5.27,0,*71
1505200049.92,13449,16.25,73088.0,5.41,5.19,5.27,0,*7B
1505200051.11,13450,16.25,73084.0,5.41,5.19,5.19,0,*7E
1505200052.31,13451,16.25,73086.0,5.43,5.23,5.29,0,*77
1505200053.52,13452,16.25,73086.5,5.43,5.19,5.19,0,*7E
1505200054.73,13453,16.25,73086.8,5.43,5.11,5.19,0,*77
1505200055.94,13454,16.25,73088.0,5.43,5.19,5.19,0,*78
1505200057.17,13455,16.25,73090.3,5.43,5.19,5.27,0,*74
1505200058.35,13456,16.25,73088.0,5.45,5.23,5.23,0,*7C
1505200059.56,13457,16.25,73088.3,5.43,5.07,5.11,0,*7C
1505200060.77,13458,16.25,73092.8,5.43,5.07,5.11,0,*73
1505200061.97,13459,16.25,73088.8,5.43,5.07,5.11,0,*72
1505200063.2,13460,16.25,73088.5,5.43,5.07,5.01,0,*79
1505200064.44,13461,16.25,73084.3,5.43,5.01,5.07,0,*78
1505200065.65,13462,16.25,73090.0,5.43,5.07,5.07,0,*7D
1505200066.85,13463,16.25,73086.0,5.43,5.11,5.07,0,*7B
1505200068.06,13464,16.25,73086.3,5.43,5.11,5.07,0,*7C
1505200069.27,13465,16.25,73088.5,5.43,5.11,5.07,0,*7D
1505200070.48,13466,16.25,73086.8,5.43,5.07,5.11,0,*7E
1505200071.68,13467,16.25,73086.0,5.43,5.11,5.07,0,*7F
1505200072.89,13468,16.25,73084.3,5.43,5.11,5.19,0,*7F
1505200074.13,13469,16.25,73084.3,5.43,5.01,5.07,0,*70
1505200075.39,13470,16.25,73082.8,5.43,5.01,5.01,0,*7E
1505200076.63,13471,16.25,73086.3,5.43,5.01,5.07,0,*79
1505200077.83,13472,16.25,73086.5,5.43,5.07,5.07,0,*7C
1505200079.04,13473,16.25,73086.5,5.43,5.07,5.11,0,*7A
1505200080.24,13474,16.25,73084.3,5.43,5.07,5.11,0,*7D
1505200081.5,13475,16.25,73084.8,5.43,5.01,5.05,0,*7F
1505200082.73,13476,16.25,73084.5,5.43,4.89,4.97,0,*77
1505200083.93,13477,16.25,73090.0,5.43,4.85,4.89,0,*75
1505200085.13,13478,16.25,73088.0,5.41,4.85,4.93,0,*73
1505200086.39,13479,16.25,73086.3,5.43,5.01,4.93,0,*7D
1505200087.62,13480,16.25,73088.0,5.45,5.01,5.05,0,*73
1505200088.85,13481,16.25,73088.5,5.45,5.05,5.05,0,*76
1505200090.08,13482,16.25,73090.8,5.41,4.97,4.97,0,*71
1505200091.31,13483,16.25,73088.8,5.41,4.97,4.97,0,*70
1505200092.54,13484,16.25,73090.8,5.41,4.93,4.93,0,*77
1505200093.8,13485,16.25,73092.3,5.43,5.01,4.97,0,*7A
1505200095.01,13486,16.25,73088.5,5.41,5.05,5.07,0,*77
1505200096.24,13487,16.25,73090.8,5.41,5.05,5.05,0,*74
1505200097.45,13488,16.25,73094.8,5.41,5.05,5.07,0,*79
1505200098.66,13489,16.25,73088.5,5.43,5.07,5.11,0,*7F
1505200099.89,13490,16.25,73088.5,5.43,5.01,5.07,0,*76
1505200101.12,13491,16.25,73090.0,5.41,4.97,4.97,0,*73
1505200102.36,13492,16.25,73090.3,5.43,4.97,5.07,0,*7A
1505200103.59,13493,16.25,73090.8,5.41,5.05,5.05,0,*71
1505200104.82,13494,16.25,73092.8,5.41,5.05,5.05,0,*76
1505200106.02,13495,16.25,73090.8,5.41,5.07,5.05,0,*75
1505200107.19,13496,16.25,73092.8,5.41,5.07,5.07,0,*74
1505200108.37,13497,16.25,73092.3,5.41,5.07,5.15,0,*76
1505200109.55,13498,16.25,73088.8,5.41,5.07,5.15,0,*79
1505200110.76,13499,16.25,73090.5,5.43,5.11,5.23,0,*78
1505200111.97,13500,16.25,73090.0,5.43,5.19,5.23,0,*71
1505200113.17,13501,16.25,73090.0,5.45,5.27,5.23,0,*7B
1505200114.38,13502,16.25,73088.3,5.43,5.19,5.19,0,*7A
1505200115.56,13503,16.25,73088.8,5.41,5.15,5.15,0,*79
1505200116.73,13504,16.25,73092.3,5.41,5.15,5.19,0,*72
1505200117.95,13505,16.25,73092.3,5.43,5.19,5.23,0,*74
1505200119.15,13506,16.25,73088.8,5.41,5.19,5.27,0,*71
1505200120.36,13507,16.25,73088.8,5.43,5.23,5.23,0,*7F
1505200121.58,13508,16.25,73090.5,5.45,5.27,5.27,0,*76
1505200122.76,13509,16.25,73090.5,5.45,5.23,5.23,0,*77
1505200123.97,13510,16.25,73088.8,5.43,5.19,5.19,0,*79
1505200125.19,13511,16.25,73088.0,5.43,5.23,5.23,0,*78
1505200126.4,13512,16.25,73088.3,5.43,5.19,5.23,0,*72